Regional Weather Roundup
Issued by NWS

Home | Current Version | Previous Version | Text Only | Print | Product List | Glossary On
Versions: 1 2 3 4 5 6 7 8 9 10 11 12 13 14 15 16 17 18 19 20 21 22 23 24 25 26 27 28 29 30 31 32 33 34 35 36 37 38 39 40 41 42 43 44 45 46 47 48 49 50
000
ASUS43 KBIS 181220
RWRND

NORTH DAKOTA REGIONAL WEATHER ROUNDUP
NATIONAL WEATHER SERVICE BISMARCK ND
700 AM CDT THU SEP 18 2014

NOTE: "FAIR" INDICATES FEW OR NO CLOUDS BELOW 12,000 FEET WITH NO
SIGNIFICANT WEATHER AND/OR OBSTRUCTIONS TO VISIBILITY.


NDZ001>003-009>011-017-181300-
NORTHWEST NORTH DAKOTA

CITY           SKY/WX    TMP DP  RH WIND       PRES   REMARKS
WILLISTON      CLEAR     56  47  71 SE3       29.78F
6HR MIN TEMP:  54; 6HR MAX TEMP:  61;

MINOT          CLEAR     45  43  93 SE5       29.87F
MINOT AFB      CLEAR     44  44 100 SE9       29.86F
$$

NDZ018>021-031>035-040>046-181300-
SOUTHWEST NORTH DAKOTA

CITY           SKY/WX    TMP DP  RH WIND       PRES   REMARKS
BISMARCK       CLEAR     47  46  97 NE7       29.91F
6HR MIN TEMP:  46; 6HR MAX TEMP:  50;

DICKINSON      CLEAR     51  46  83 S16       29.82F
GARRISON         N/A     51  49  92 SE7       29.88F
6HR MIN TEMP:  51; 6HR MAX TEMP:  53;

HETTINGER ARPT CLEAR     49  45  86 SE5       29.87F
$$

NDZ004>008-012>016-024-026-027-054-181300-
NORTHEAST NORTH DAKOTA

CITY           SKY/WX    TMP DP  RH WIND       PRES   REMARKS
GRAND FORKS    PTCLDY    36  34  92 CALM      29.99F
GRND FRKS AFB  FOG       34  34  99 CALM      29.99F VSB 1/2
DEVILS LAKE    CLEAR     46  41  81 SE8       29.94S
$$

NDZ022-023-025-028>030-036>039-047>053-181300-
SOUTHEAST NORTH DAKOTA

CITY           SKY/WX    TMP DP  RH WIND       PRES   REMARKS
FARGO          CLEAR     44  41  89 E6        29.99F FOG
6HR MIN TEMP:  42; 6HR MAX TEMP:  49;

JAMESTOWN      FOG       39  38  96 CALM      29.96F VSB 1/2
$$




USA.gov is the U.S. government's official web portal to all federal, state and local government web resources and services.